Theta_e
337 336 334 332 333 334 330 329 330 330 331 332 331 330 335 338 338 338 338 341 338 336 335 333 333 332 331 331 332 331 332 331 331 332 332 332 333 333 334 334 334 334 336
338 337 336 332 333 332 332 330 329 330 330 331 333 332 332 334 334 337 335 338 339 338 336 335 336 335 334 334 334 334 333 333 333 334 334 335 334 333 334 334 334 335 335
339 337 335 336 335 334 332 333 333 334 333 330 331 334 332 332 331 333 334 334 337 338 336 335 336 335 335 334 335 336 337 336 335 337 338 338 337 335 334 334 334 333 334
337 339 337 336 334 334 334 331 331 331 331 331 332 332 334 332 332 333 333 332 334 334 336 337 335 335 335 335 336 335 337 340 339 339 339 339 338 336 336 335 335 335 333
336 337 336 337 337 333 335 330 333 330 330 330 327 330 331 331 331 331 334 331 332 331 332 337 331 330 330 330 333 334 335 337 339 339 339 339 338 337 337 336 335 335 335
336 338 337 337 336 333 334 333 333 333 329 329 326 327 329 330 331 330 330 330 334 332 332 333 332 332 331 331 332 333 334 333 335 337 338 339 339 339 338 337 336 336 336
338 339 335 335 335 333 334 334 332 332 331 334 327 325 326 330 330 328 330 330 330 332 334 333 333 333 334 332 332 329 332 333 334 335 337 338 338 337 338 338 337 337 337
339 339 338 334 334 332 333 333 333 330 330 334 326 323 319 323 326 329 329 329 330 331 330 332 333 334 333 332 331 326 328 330 332 332 333 335 335 335 337 337 337 338 338
338 340 339 336 336 335 330 333 333 332 327 331 332 325 319 316 323 327 330 329 331 330 331 332 331 331 331 330 328 328 323 323 325 327 328 329 331 333 333 334 335 335 336
339 339 339 338 338 334 333 333 332 332 333 326 330 330 332 330 324 319 327 328 330 329 330 328 328 329 329 328 324 324 318 320 322 322 323 323 325 327 328 330 331 333 333
339 338 339 339 338 336 336 335 334 334 331 330 330 330 332 329 329 323 318 317 323 325 326 327 327 327 327 326 324 323 317 318 320 320 320 321 321 322 323 324 326 328 330
336 339 337 339 340 338 337 335 336 336 335 334 331 330 327 325 321 320 318 318 318 322 323 325 326 324 322 321 320 315 317 318 318 317 318 318 318 320 321 322 323 324 325
335 338 340 339 338 340 338 338 337 336 336 335 336 331 328 327 328 325 320 318 315 320 321 324 324 321 319 320 318 316 318 319 319 317 316 316 317 317 318 320 321 322 323
336 340 340 340 341 340 339 339 335 335 336 336 334 337 331 330 329 326 322 320 316 317 319 323 321 319 319 319 320 317 318 321 318 316 316 316 316 315 316 317 318 318 319
339 340 337 338 339 339 339 339 335 336 338 336 336 337 336 332 329 327 325 322 318 313 313 316 316 321 320 321 322 321 319 319 316 316 316 316 315 314 314 315 315 316 316
341 340 339 339 339 338 339 340 336 337 337 336 337 336 335 331 329 326 324 322 321 317 312 316 316 320 322 321 323 320 319 319 317 317 317 315 314 314 313 313 314 314 313
342 342 340 340 339 339 339 339 339 336 333 335 335 333 331 332 326 321 320 320 319 317 313 316 317 321 323 322 321 321 320 318 317 319 318 316 313 312 312 312 313 313 312
343 342 341 339 338 337 337 337 334 334 331 331 328 327 323 318 320 323 320 322 321 321 316 315 318 317 320 323 321 319 318 317 317 317 317 314 313 312 311 311 311 311 311
342 342 340 338 336 336 335 336 336 332 331 327 323 321 319 318 319 320 320 320 319 319 319 316 314 316 317 318 318 318 317 318 317 319 317 315 314 313 312 312 311 310 309
339 339 340 337 335 332 333 332 330 330 326 322 323 320 318 318 319 320 320 321 320 318 318 315 314 314 314 319 316 313 312 314 313 315 316 314 313 311 312 312 312 312 309
334 333 332 332 331 331 329 330 329 326 324 325 324 321 321 321 319 318 316 318 318 315 313 312 311 312 312 313 312 313 311 312 314 314 313 311 311 310 312 313 315 315 311
330 333 333 331 333 331 314 311 315 326 326 325 323 323 323 321 317 313 314 314 314 312 311 309 309 311 315 314 313 312 310 308 306 313 309 306 309 309 311 314 312 310 308
338 336 331 331 333 334 307 305 307 317 323 325 325 325 323 322 320 321 315 311 310 309 310 312 312 315 314 315 315 312 311 309 306 307 307 304 308 307 311 313 310 308 307
333 333 331 330 330 328 308 304 304 318 322 324 325 325 325 325 324 323 323 320 318 316 315 316 316 316 316 313 312 311 310 308 307 307 311 301 306 306 310 312 309 308 306
328 328 328 328 328 328 311 304 309 324 324 324 325 326 326 325 316 308 320 317 316 314 311 308 306 303 301 301 302 303 302 301 302 304 307 304 306 305 307 308 312 308 305
326 325 326 328 322 328 314 306 310 323 322 322 326 326 313 318 308 303 310 312 313 314 313 308 306 305 303 304 303 303 301 300 301 302 307 303 303 303 299 306 309 307 308
Wind_Speed
1 1 2 3 3 2 4 5 4 4 3 2 4 1 1 1 3 2 8 10 5 4 4 4 3 2 2 2 3 4 5 4 4 5 5 6 7 7 8 8 8 8 9
1 1 1 3 3 4 4 5 4 3 3 3 1 1 3 3 5 2 3 11 9 6 5 5 6 6 5 6 7 7 7 7 7 7 8 8 8 9 9 10 10 10 10
3 4 2 2 2 3 5 2 2 1 2 3 1 2 2 3 4 5 4 4 12 11 7 6 5 6 8 8 8 9 9 8 8 9 10 11 11 10 10 11 11 11 11
4 2 2 2 4 3 3 3 3 3 2 2 2 3 2 4 5 5 6 4 3 2 13 10 6 6 7 8 10 10 9 9 10 10 11 12 11 12 12 12 12 12 12
6 5 3 1 2 3 2 4 2 3 2 3 4 3 3 3 5 4 2 5 4 5 5 12 6 7 7 7 8 11 13 12 10 9 10 12 12 12 13 14 14 14 14
6 5 3 3 3 2 2 2 3 2 4 4 4 2 4 4 4 4 5 5 2 4 6 5 6 8 11 8 9 9 10 11 11 11 11 11 12 14 14 14 15 16 16
7 6 5 4 4 3 3 3 4 2 2 0 5 4 5 5 6 5 5 5 5 7 4 6 6 6 5 12 9 5 9 11 12 12 12 11 11 14 17 16 15 15 16
8 7 5 4 4 3 4 4 4 4 2 1 4 4 5 7 8 9 8 7 9 6 7 6 7 7 7 7 4 2 5 8 10 11 11 11 13 12 13 15 16 16 17
10 9 8 6 5 6 5 5 5 5 5 3 4 5 4 3 1 6 10 9 4 6 7 7 6 7 6 6 4 6 5 10 12 12 12 12 13 13 13 13 13 15 17
10 11 10 9 8 7 4 5 6 6 5 6 3 4 5 7 3 6 6 6 8 8 9 7 6 7 7 7 4 7 4 9 11 12 12 13 14 14 15 16 17 17 17
9 11 11 10 9 8 7 7 6 7 5 7 3 5 5 7 7 6 9 7 5 7 5 6 7 7 7 6 6 3 5 9 11 11 13 14 14 15 17 18 19 19 21
8 10 11 10 10 9 8 8 8 9 9 7 7 7 6 8 7 8 9 9 8 6 6 8 7 7 6 6 6 1 7 10 11 12 13 14 15 16 18 18 19 20 21
7 9 10 10 9 11 10 9 9 9 9 9 8 8 7 8 8 8 9 9 10 9 8 8 7 5 5 5 7 4 11 11 10 10 14 15 16 16 17 18 19 20 21
6 5 8 10 11 12 11 10 8 9 9 8 11 10 10 10 9 8 8 8 10 10 10 9 5 5 6 6 7 9 11 9 9 8 13 17 18 19 19 19 19 19 19
6 8 8 10 10 11 11 10 9 10 9 9 11 11 9 10 9 8 8 9 10 11 10 6 4 5 5 7 6 10 11 12 6 12 16 15 17 18 21 21 21 20 20
7 8 11 11 10 10 10 10 10 11 9 11 8 10 10 9 9 8 9 9 9 10 12 10 7 5 6 8 11 10 12 10 17 19 17 16 15 16 20 22 22 22 22
10 11 11 11 11 11 10 9 11 13 13 11 10 8 9 10 9 9 8 9 9 9 11 10 9 8 8 11 11 11 12 12 12 12 13 12 13 18 21 21 21 22 24
8 10 9 9 10 10 10 11 13 11 10 10 7 8 9 8 10 10 9 11 10 10 11 15 12 11 11 11 10 13 11 11 12 13 10 17 19 20 20 19 21 22 23
8 7 7 10 10 10 11 10 9 8 8 7 7 8 9 10 10 9 10 9 10 9 10 11 12 10 10 11 11 12 12 12 12 16 15 18 16 15 15 17 19 21 21
4 5 5 6 7 7 8 7 9 8 8 8 7 8 10 10 10 10 9 10 10 11 11 12 12 12 10 11 9 11 11 10 12 12 12 14 13 17 16 16 20 23 22
3 3 3 2 3 4 6 7 9 8 8 8 9 10 11 10 7 8 8 9 10 10 11 12 12 12 12 11 10 10 12 12 12 12 12 11 12 12 12 13 18 16 13
3 5 3 5 8 5 2 4 7 8 10 10 10 10 11 10 12 14 14 16 13 12 13 13 13 13 12 11 9 11 11 12 14 11 11 13 13 12 12 12 14 9 12
3 3 4 6 7 5 10 8 9 10 10 11 12 11 12 11 10 13 16 18 16 17 19 14 15 14 13 11 9 12 12 13 14 12 13 13 12 12 12 11 14 11 14
5 4 4 5 6 6 8 9 9 10 11 14 14 15 15 16 16 16 15 14 13 12 10 12 12 14 13 8 8 11 13 14 13 13 11 14 12 12 11 11 17 14 8
5 5 5 7 8 8 8 11 9 10 12 14 14 16 16 17 17 7 12 15 15 14 8 9 5 6 9 11 9 8 11 12 13 12 9 12 9 12 12 13 11 9 15
6 5 7 8 8 9 10 10 10 10 12 12 13 15 16 17 11 10 6 13 16 14 8 3 4 9 11 11 14 11 8 9 12 13 6 9 11 8 6 9 10 12 10
Wind_Direction
67 263 59 13 14 352 356 345 351 348 324 293 330 280 233 201 96 265 132 139 155 157 169 166 166 174 205 267 294 298 306 306 297 295 296 295 292 286 282 280 277 277 278
173 9 63 28 32 356 358 335 11 337 335 318 16 34 196 171 208 199 207 151 168 196 211 218 217 224 246 261 269 280 278 285 280 274 277 277 276 276 276 274 279 275 271
173 319 25 331 27 350 329 341 270 237 275 236 231 220 228 215 192 208 246 263 156 186 204 231 238 245 250 259 263 271 276 268 269 270 264 268 263 264 270 271 270 269 272
211 245 283 343 33 301 330 356 319 294 295 273 248 247 209 218 179 193 225 248 237 230 176 177 207 250 265 275 280 276 270 267 251 252 258 266 259 256 260 264 265 267 272
200 248 265 352 268 311 329 328 310 312 295 297 238 215 229 228 205 194 194 218 222 256 288 155 185 244 255 273 279 275 273 276 280 276 278 266 244 250 255 258 262 265 264
220 225 252 299 267 283 250 351 325 346 308 323 303 192 225 225 234 232 211 238 267 261 242 275 244 225 200 241 273 277 278 277 279 282 282 289 246 241 246 253 260 261 263
217 211 244 195 233 263 313 273 275 215 246 161 254 180 204 223 233 235 227 247 250 239 304 260 260 266 250 196 226 268 298 293 293 295 297 291 282 271 248 243 251 256 259
225 225 246 206 207 235 225 247 260 289 237 323 298 283 231 186 215 227 244 245 256 278 266 253 285 276 281 288 1 344 301 328 317 310 310 312 308 296 265 247 251 254 255
218 220 210 232 192 247 216 216 228 258 288 217 292 307 265 259 19 201 209 248 299 276 292 275 247 269 264 283 273 222 52 337 322 316 316 316 313 308 303 288 273 265 262
215 212 209 208 210 223 236 218 225 263 241 273 212 227 303 329 292 274 205 224 227 251 244 276 260 245 251 269 309 277 328 320 311 308 308 305 302 299 295 291 287 282 272
226 213 206 211 215 225 208 244 227 230 240 270 268 259 268 249 233 271 293 289 249 242 247 251 260 289 274 256 273 266 351 308 305 309 307 305 302 296 290 286 283 282 281
203 213 210 216 221 229 228 222 225 228 240 260 288 305 307 294 299 293 284 281 280 286 289 287 271 259 267 273 266 240 292 299 304 305 303 303 302 298 295 293 290 287 284
214 197 215 221 226 224 232 226 215 235 232 243 245 263 267 264 277 281 279 295 298 296 286 275 272 275 273 266 276 342 300 290 271 284 291 289 291 294 294 290 288 287 286
219 216 213 226 231 235 223 223 228 233 239 241 254 252 264 290 276 275 276 263 267 272 253 233 253 256 255 266 313 274 274 256 230 270 285 284 286 291 291 288 284 282 282
238 230 227 232 232 230 227 227 238 244 244 246 253 260 263 268 280 276 274 270 275 281 284 286 246 246 265 269 302 295 290 286 298 285 275 274 281 289 289 281 276 278 278
229 234 234 238 233 229 228 229 241 241 243 256 266 264 265 280 283 270 271 267 263 273 281 286 276 253 283 291 291 291 283 276 259 250 246 259 272 288 287 284 278 280 283
235 238 238 241 236 233 236 242 252 259 265 270 263 265 277 282 279 279 267 264 271 271 276 279 288 283 249 257 285 291 289 286 282 241 230 255 268 271 274 273 273 275 278
235 242 240 236 246 250 242 242 252 260 267 250 254 258 271 274 267 256 267 271 278 288 283 286 289 290 273 281 283 286 281 287 289 282 271 261 263 265 271 272 270 272 271
248 246 240 242 247 255 261 261 272 266 253 256 271 274 275 269 266 271 276 276 272 262 260 268 284 283 289 290 288 281 285 294 278 269 249 243 255 253 256 264 272 272 269
237 230 240 264 261 268 272 275 248 245 242 242 256 260 261 261 268 272 271 276 275 273 271 269 270 273 279 275 277 279 282 294 300 300 294 272 275 267 250 251 262 261 256
237 193 205 12 313 264 247 239 248 245 249 262 262 256 251 253 282 275 276 274 284 274 276 275 272 271 266 269 284 303 293 293 299 298 296 301 303 299 297 288 278 249 254
197 241 216 254 262 283 37 242 277 255 252 260 271 271 268 229 241 239 243 250 263 266 266 272 275 277 284 281 277 287 301 303 298 304 312 302 298 296 302 299 288 286 274
313 287 274 275 279 270 161 201 219 251 267 270 270 270 270 267 240 254 227 224 235 235 237 259 271 272 282 287 299 297 285 290 292 302 295 287 294 295 298 300 306 291 266
358 346 320 296 287 281 172 206 216 249 258 262 265 268 265 266 264 259 262 263 261 265 243 234 239 263 280 324 309 286 294 287 277 271 281 290 298 295 296 297 294 277 285
330 313 304 297 290 287 205 212 213 256 257 259 262 267 269 269 270 263 265 266 268 263 239 221 251 286 296 291 266 281 275 284 290 294 305 287 296 307 308 302 285 353 316
291 301 296 289 288 282 263 223 209 260 269 273 272 262 238 255 276 162 235 258 261 264 262 245 265 256 248 250 241 231 255 272 285 290 290 293 300 328 299 297 303 307 310